User: anonymous   Login
Location: Ferma
(41.9500°N, 44.5167°E)
Time: 02:43:00
(UTC+00:00)
Language:

Cosmos 1605 Rocket - Orbit

View from above orbital plane
View from above orbital plane
View from above satellite
View from above satellite

Ground track
Ground track

The orbit data is extracted from the following two-line orbital elements,

1 15360U 84109B   22018.60305059  .00000130  00000-0  11546-3 0  9992
2 15360  82.9381 242.9449 0042282  45.5089 314.9511 13.76785588871997
Epoch (UTC): 18 January 2022 14:28:23
Eccentricity: 0.0042282
inclination: 82.9381°
perigee height: 944 km
apogee height: 1006 km
right ascension of ascending node: 242.9449°
argument of perigee: 45.5089°
revolutions per day: 13.76785588
mean anomaly at epoch: 314.9511°
orbit number at epoch: 87199

The dashed part of the orbit path shows where the satellite is in the earth's shadow,  

DLR